Weather History for LGSM - October, 2012

Change the Weather History Date:

Tuesday, October 9, 2012

  Actual Average Record
Temperature  
Mean Temperature 73 °F -  
Max Temperature 79 °F 70 °F 86 °F (2007)
Min Temperature 67 °F 57 °F 53 °F (2003)
Cooling Degree Days 8    
Growing Degree Days 23 (Base 50)    
Moisture  
Dew Point 57 °F    
Average Humidity 58    
Maximum Humidity 88    
Minimum Humidity 28    
Precipitation  
Precipitation 0.00 in 0.07 in - ()
Sea Level Pressure  
Sea Level Pressure 29.86 in    
Wind  
Wind Speed 7 mph ()    
Max Wind Speed 14 mph    
Max Gust Speed -    
Visibility 6.0 miles    
Events      
Averages and records for this station are not official NWS values.
T = Trace of Precipitation, MM = Missing Value Source: Averaged Metar Reports

Daily Weather History Graph

Daily Weather History Graph

Search for Another Location

Airport or City:

Trip Planner

Search our weather history database for the weather conditions in past years. The results will help you decide how hot, cold, wet, or windy it might be!

Date:

Astronomy

Oct. 09, 2012 Rise Set
Actual Time 7:15 AM EEST 6:43 PM EEST
Civil Twilight 6:48 AM EEST 7:09 PM EEST
Nautical Twilight 6:18 AM EEST 7:39 PM EEST
Astronomical Twilight 5:48 AM EEST 8:10 PM EEST
Moon 12:39 AM EEST (10/9) 2:52 PM EEST (10/9)
Length of Visible Light 12h 20m
Length of Day
11h 28m
Last Quarter, 40% of the Moon is Illuminated
Oct 9
Last Quarter
Oct 15
New
Oct 22
First Quarter
Oct 29
Full
Nov 7
Last Quarter

Hourly Weather History & Observations

Time (EEST) Temp. Dew Point Humidity Pressure Visibility Wind Dir Wind Speed Gust Speed Precip Events Conditions
4:50 AM 68.0 °F 64.4 °F 88% 29.86 in 6.2 mi NW 4.6 mph - N/A   Scattered Clouds
5:20 AM 68.0 °F 64.4 °F 88% 29.86 in 6.2 mi WSW 4.6 mph - N/A   Scattered Clouds
5:50 AM 68.0 °F 64.4 °F 88% 29.86 in 5.0 mi NE 4.6 mph - N/A   Scattered Clouds
6:20 AM 68.0 °F 64.4 °F 88% 29.86 in 5.0 mi North 4.6 mph - N/A   Scattered Clouds
6:50 AM 68.0 °F 62.6 °F 83% 29.86 in 5.0 mi NE 4.6 mph - N/A   Scattered Clouds
7:20 AM 68.0 °F 62.6 °F 83% 29.86 in 6.2 mi NNW 8.1 mph - N/A   Scattered Clouds
7:50 AM 69.8 °F 60.8 °F 73% 29.86 in 6.2 mi NNW 4.6 mph - N/A   Scattered Clouds
8:20 AM 69.8 °F 62.6 °F 78% 29.86 in 6.2 mi North 5.8 mph - N/A   Scattered Clouds
8:50 AM 69.8 °F 62.6 °F 78% 29.89 in 6.2 mi North 9.2 mph - N/A   Scattered Clouds
9:00 AM 70 °F 62 °F 70% 29.90 in 6 mi North 9.2 mph - -   Partly Cloudy
9:20 AM 69.8 °F 62.6 °F 78% 29.89 in 6.2 mi NNW 8.1 mph - N/A   Scattered Clouds
9:50 AM 71.6 °F 62.6 °F 73% 29.89 in 6.2 mi NNW 8.1 mph - N/A   Partly Cloudy
10:20 AM 71.6 °F 59.0 °F 64% 29.89 in 6.2 mi NNE 9.2 mph - N/A   Partly Cloudy
10:50 AM 73.4 °F 59.0 °F 61% 29.89 in 6.2 mi North 9.2 mph - N/A   Partly Cloudy
11:20 AM 73.4 °F 59.0 °F 61% 29.89 in 6.2 mi North 9.2 mph - N/A   Partly Cloudy
11:50 AM 75.2 °F 59.0 °F 57% 29.89 in 6.2 mi North 9.2 mph - N/A   Partly Cloudy
12:20 PM 75.2 °F 59.0 °F 57% 29.89 in 6.2 mi North 11.5 mph - N/A   Partly Cloudy
12:50 PM 75.2 °F 59.0 °F 57% 29.89 in 6.2 mi NNE 11.5 mph - N/A   Partly Cloudy
1:20 PM 77.0 °F 57.2 °F 50% 29.86 in 6.2 mi North 10.4 mph - N/A   Scattered Clouds
1:50 PM 77.0 °F 57.2 °F 50% 29.86 in 6.2 mi North 11.5 mph - N/A   Scattered Clouds
2:20 PM 77.0 °F 57.2 °F 50% 29.86 in 6.2 mi NNE 13.8 mph - N/A   Scattered Clouds
2:50 PM 78.8 °F 55.4 °F 44% 29.86 in 6.2 mi NNE 12.7 mph - N/A   Partly Cloudy
3:00 PM 79 °F 54 °F 32% 29.86 in 6 mi NNE 12.7 mph - -   Scattered Clouds
3:20 PM 78.8 °F 55.4 °F 44% 29.86 in 6.2 mi North 10.4 mph - N/A   Partly Cloudy
3:50 PM 78.8 °F 55.4 °F 44% 29.83 in 6.2 mi North 9.2 mph - N/A   Scattered Clouds
4:20 PM 78.8 °F 53.6 °F 42% 29.83 in - North 9.2 mph - N/A   Clear
4:50 PM 78.8 °F 53.6 °F 42% 29.83 in - North 9.2 mph - N/A   Clear
5:20 PM 77.0 °F 53.6 °F 44% 29.83 in - North 8.1 mph - N/A   Clear
5:50 PM 75.2 °F 51.8 °F 44% 29.83 in - North 5.8 mph - N/A   Clear
6:20 PM 73.4 °F 51.8 °F 47% 29.83 in - Variable 3.5 mph - N/A   Clear
6:50 PM 71.6 °F 50.0 °F 46% 29.83 in - Variable 3.5 mph - N/A   Clear
7:20 PM 73.4 °F 48.2 °F 41% 29.83 in - Variable 3.5 mph - N/A   Clear
7:50 PM 73.4 °F 48.2 °F 41% 29.83 in - North 5.8 mph - N/A   Clear
8:20 PM 71.6 °F 46.4 °F 41% 29.83 in - North 6.9 mph - N/A   Clear
8:50 PM 71.6 °F 44.6 °F 38% 29.83 in - North 6.9 mph - N/A   Clear
9:00 PM 71 °F 45 °F 28% 29.85 in 6 mi North 6.9 mph - -   Clear
9:50 PM 69.8 °F 44.6 °F 40% 29.83 in - North 9.2 mph - N/A   Clear